TimeEST,TemperatureF,Dew PointF,Humidity,Sea Level PressureIn,VisibilityMPH,Wind Direction,Wind SpeedMPH,Gust SpeedMPH,PrecipitationIn,Events,Conditions,WindDirDegrees,DateUTC
12:55 AM,48.4,41.9,78,29.94,10.0,ESE,5.8,-,N/A,,Scattered Clouds,120,2013-01-12 05:55:00
1:55 AM,49.1,43.0,79,29.94,10.0,SE,5.8,-,N/A,,Mostly Cloudy,130,2013-01-12 06:55:00
2:55 AM,52.5,46.0,79,29.96,10.0,South,9.2,-,N/A,,Partly Cloudy,180,2013-01-12 07:55:00
3:55 AM,53.8,47.3,79,29.96,10.0,South,11.5,-,N/A,,Scattered Clouds,190,2013-01-12 08:55:00
4:55 AM,50.0,46.0,86,29.96,10.0,South,9.2,-,N/A,,Partly Cloudy,190,2013-01-12 09:55:00
5:43 AM,48.2,46.4,93,29.96,7.0,South,8.1,-,N/A,Fog,Shallow Fog,190,2013-01-12 10:43:00
5:50 AM,50.0,46.4,87,29.97,7.0,South,8.1,-,N/A,Fog,Shallow Fog,190,2013-01-12 10:50:00
5:55 AM,50.2,47.7,91,29.97,7.0,South,8.1,-,N/A,Fog,Shallow Fog,190,2013-01-12 10:55:00
6:11 AM,53.6,50.0,88,29.97,10.0,South,10.4,-,N/A,,Mostly Cloudy,190,2013-01-12 11:11:00
6:18 AM,51.8,50.0,94,29.97,10.0,SSW,10.4,-,N/A,,Mostly Cloudy,200,2013-01-12 11:18:00
6:55 AM,53.1,50.9,92,29.98,10.0,SSW,9.2,-,N/A,,Mostly Cloudy,200,2013-01-12 11:55:00
7:21 AM,51.8,50.0,94,29.99,10.0,SSW,9.2,-,N/A,,Scattered Clouds,200,2013-01-12 12:21:00
7:25 AM,51.8,50.0,94,29.99,10.0,SSW,9.2,-,N/A,,Mostly Cloudy,200,2013-01-12 12:25:00
7:43 AM,51.8,50.0,94,30.01,10.0,South,8.1,-,N/A,,Mostly Cloudy,190,2013-01-12 12:43:00
7:55 AM,52.2,50.5,94,30.01,10.0,South,8.1,-,N/A,,Mostly Cloudy,190,2013-01-12 12:55:00
8:22 AM,51.8,51.8,100,30.02,10.0,South,9.2,-,N/A,,Mostly Cloudy,190,2013-01-12 13:22:00
8:55 AM,54.7,54.0,97,30.03,10.0,SSW,9.2,-,N/A,,Mostly Cloudy,200,2013-01-12 13:55:00
9:55 AM,57.7,52.5,83,30.04,10.0,SSW,13.8,-,N/A,,Mostly Cloudy,210,2013-01-12 14:55:00
10:55 AM,59.9,52.5,77,30.03,10.0,SSW,8.1,-,N/A,,Mostly Cloudy,200,2013-01-12 15:55:00
11:52 AM,60.8,51.8,72,30.01,10.0,SW,11.5,-,N/A,,Mostly Cloudy,230,2013-01-12 16:52:00
11:55 AM,61.0,51.3,70,30.01,10.0,SW,11.5,-,N/A,,Mostly Cloudy,230,2013-01-12 16:55:00
12:36 PM,60.8,50.0,68,30.00,10.0,SW,10.4,-,N/A,,Overcast,220,2013-01-12 17:36:00
12:55 PM,61.5,50.7,68,30.01,10.0,SW,9.2,-,N/A,,Overcast,220,2013-01-12 17:55:00
1:34 PM,62.6,50.0,63,29.99,10.0,SSW,9.2,-,N/A,,Mostly Cloudy,200,2013-01-12 18:34:00
1:55 PM,63.3,50.2,62,29.99,10.0,SW,8.1,-,N/A,,Mostly Cloudy,220,2013-01-12 18:55:00
2:55 PM,64.0,50.9,62,29.98,10.0,SSW,8.1,-,N/A,,Mostly Cloudy,210,2013-01-12 19:55:00
3:55 PM,63.3,51.1,64,29.98,10.0,South,5.8,-,N/A,,Overcast,170,2013-01-12 20:55:00
4:55 PM,61.7,50.7,67,29.97,10.0,SSE,5.8,-,N/A,,Mostly Cloudy,150,2013-01-12 21:55:00
5:55 PM,58.5,50.9,76,29.96,10.0,Calm,Calm,-,N/A,,Mostly Cloudy,0,2013-01-12 22:55:00
6:55 PM,57.4,51.6,81,29.93,10.0,Calm,Calm,-,N/A,,Overcast,0,2013-01-12 23:55:00
7:14 PM,57.2,51.8,82,29.92,10.0,East,4.6,-,N/A,,Overcast,100,2013-01-13 00:14:00
7:37 PM,59.0,55.4,88,29.91,10.0,ESE,9.2,-,N/A,,Overcast,120,2013-01-13 00:37:00
7:55 PM,60.3,55.4,84,29.90,6.0,ESE,6.9,-,N/A,,Overcast,120,2013-01-13 00:55:00
8:18 PM,60.8,57.2,88,29.89,6.0,ESE,5.8,-,N/A,,Overcast,120,2013-01-13 01:18:00
8:35 PM,60.8,57.2,88,29.87,4.0,ESE,6.9,-,N/A,,Overcast,120,2013-01-13 01:35:00
8:55 PM,61.2,57.9,89,29.88,6.0,SSE,5.8,-,N/A,,Overcast,150,2013-01-13 01:55:00
9:55 PM,61.5,59.2,92,29.85,10.0,SE,10.4,-,0.05,Rain,Light Rain,140,2013-01-13 02:55:00
10:00 PM,60.8,59.0,94,29.85,10.0,SSE,10.4,-,N/A,,Overcast,150,2013-01-13 03:00:00
10:21 PM,62.6,59.0,88,29.83,10.0,SSE,10.4,-,N/A,,Overcast,160,2013-01-13 03:21:00
10:37 PM,62.6,59.0,88,29.82,10.0,SSE,13.8,-,N/A,,Overcast,150,2013-01-13 03:37:00
10:45 PM,62.6,59.0,88,29.82,10.0,SSE,13.8,20.7,N/A,,Overcast,160,2013-01-13 03:45:00
10:47 PM,62.6,59.0,88,29.82,10.0,SSE,13.8,-,N/A,Rain,Light Rain,160,2013-01-13 03:47:00
10:55 PM,62.8,59.2,88,29.82,10.0,SSE,17.3,-,0.00,Rain,Light Rain,160,2013-01-13 03:55:00
11:16 PM,62.6,59.0,88,29.81,10.0,SSE,15.0,-,N/A,,Overcast,160,2013-01-13 04:16:00
11:22 PM,62.6,59.0,88,29.81,10.0,SSE,15.0,-,N/A,,Overcast,160,2013-01-13 04:22:00
11:55 PM,63.7,57.7,81,29.81,10.0,South,11.5,-,0.00,,Overcast,170,2013-01-13 04:55:00